Home   Weather   Bad Radkersburg   Past weeks

Flag for Austria Past Weather in Bad Radkersburg, Styria, Austria — Yesterday and Last 2 Weeks

Now
57 °F

Clear.


Feels Like: 57 °F
Forecast: 54 / 69 °F
Wind: 5 mph from South

Location: Murska Sobota

Current Time: Apr 26, 2017 at 12:17:08 am

Latest Report: Apr 25, 2017 at 11:00 pm


Visibility: N/A

Pressure: 29.82 "Hg

Humidity: 64%

Dew Point: 45 °F

Location of Bad RadkersburgLocation

Past Weather in Bad Radkersburg — Graph

°F

Bad Radkersburg Temperature Yesterday

Maximum temperature yesterday: 68 °F (at 2:00 pm)
Minimum temperature yesterday: 53 °F (at 5:00 am)
Average temperature yesterday: 60 °F

High & Low Weather Summary for the Past Weeks

 TemperatureHumidityPressure
High70 °F (Apr 13, 4:00 pm)97% (Apr 16, 8:00 am)30.47 "Hg (Apr 16, 8:00 am)
Low25 °F (Apr 21, 6:00 am)29% (Apr 21, 6:00 pm)29.79 "Hg (Apr 25, 7:00 pm)
Average50 °F62%30.09 "Hg
* Reported Apr 10 10:00 pm — Apr 25 10:00 pm, Bad Radkersburg, Weather by CustomWeather, © 2017

Note: Actual official high and low records may vary slightly from our data, if they occured in-between our weather recording intervals... More about our weather records

Advertising

Bad Radkersburg Weather History for the Previous 24 Hours

Scroll right to see more
 ConditionsComfort  
Time TempWeatherWind HumidityBarometerVisibility
10:00 pm
Tue, Apr 25
57 °FClear.3 mph63%29.82 "HgN/A
9:00 pm60 °FClear.6 mph58%29.81 "HgN/A
8:00 pm61 °FClear.6 mph55%29.79 "HgN/A
7:00 pm64 °FPassing clouds.8 mph50%29.79 "HgN/A
6:00 pm66 °FSunny.7 mph46%29.79 "HgN/A
5:00 pm68 °FScattered clouds.7 mph46%29.80 "HgN/A
4:00 pm68 °FPassing clouds.9 mph42%29.80 "HgN/A
3:00 pm68 °FScattered clouds.9 mph45%29.81 "HgN/A
2:00 pm68 °FSunny.9 mph44%29.82 "HgN/A
1:00 pm67 °FSunny.12 mph47%29.83 "HgN/A
12:00 pm66 °FSunny.12 mph50%29.84 "HgN/A
11:00 am64 °FSunny.9 mph52%29.85 "HgN/A
10:00 am63 °FSunny.8 mph55%29.85 "HgN/A
9:00 am60 °FSunny.8 mph59%29.86 "HgN/A
8:00 am57 °FPassing clouds.7 mph62%29.88 "Hg12 mi
7:00 am53 °FSunny.3 mph68%29.88 "HgN/A
6:00 am53 °FSunny.3 mph67%29.88 "HgN/A
5:00 am53 °FClear.3 mph68%29.88 "HgN/A
4:00 am53 °FClear.3 mph69%29.90 "HgN/A
3:00 am54 °FClear.6 mph69%29.90 "HgN/A
2:00 am54 °FClear.6 mph73%29.91 "HgN/A
1:00 am54 °FClear.6 mph73%29.93 "HgN/A
12:00 am54 °FClear.5 mph72%29.93 "HgN/A
Weather by CustomWeather, © 2017

See weather overviewHow to use our weather pages